Preview of NWS' New Version of Forecast
This preview is not operational and should not be used for support decisions.

Regional Weather Roundup (RWR)

Issued by National Weather Service (NWS)

                            
000
ASUS43 KMKX 251100
RWRWI 

WISCONSIN REGIONAL WEATHER ROUNDUP
NATIONAL WEATHER SERVICE MILWAUKEE/SULLIVAN WI
600 AM CDT SUN AUG 25 2019

NOTE: "FAIR" INDICATES FEW OR NO CLOUDS BELOW 12,000 FEET WITH NO
SIGNIFICANT WEATHER AND/OR OBSTRUCTIONS TO VISIBILITY.

WIZ001-002-006>008-014>016-023>028-251200-
NORTHWEST WISCONSIN
  
CITY           SKY/WX    TMP DP  RH WIND       PRES   REMARKS
SUPERIOR ARPT  CLOUDY    57  55  91 CALM      30.09S                  
ASHLAND        CLOUDY    61  52  72 SE7       30.14S                  
HAYWARD        CLOUDY    59  51  75 SE9       30.13F                  
SIREN          CLOUDY    61  55  79 SE6       30.10S                  
CUMBERLAND     CLOUDY    57  52  82 SE9       30.12F                  
RICE LAKE      CLOUDY    60  42  52 SE10      30.14S                  
CHETEK         MOCLDY    58  54  85 SE8       30.13F                  
LADYSMITH      FAIR      56  51  85 SE7       30.17F                  
EAU CLAIRE     FAIR      56  51  84 SE7       30.12F                  
MENOMONIE      MOCLDY    56  51  85 E6        30.12S                  
NEW RICHMOND   FAIR      59  53  79 SE8       30.09F                  
OSCEOLA        FAIR      61  55  81 SE9       30.11F                  
$$
 
WIZ003>005-009-010-017-018-251200-
NORTH CENTRAL WISCONSIN
  
CITY           SKY/WX    TMP DP  RH WIND       PRES   REMARKS
MANITOWISH WTR FAIR      49  49 100 SE5       30.20S                  
ARBOR VITAE    FAIR      52  49  90 SE3       30.20S                  
WOODRUFF       FAIR      52  49  90 SE3       30.20S                  
RHINELANDER    MOCLDY    49  47  93 SE5       30.21S                  
EAGLE RIVER    FAIR      48  48 100 S3        30.21S                  
LAND O LAKES   FOG       41  41 100 CALM      30.23S VSB 1/4          
PHILLIPS       FAIR      51  51 100 CALM      30.18S                  
TOMAHAWK       MOCLDY    42  41  97 CALM      30.21S                  
MEDFORD        MOCLDY    48  48  99 E3        30.19S                  
MERRILL        CLOUDY    46  46 100 CALM      30.20F                  
$$
 
WIZ029-030-035-036-043>047-251200-
CENTRAL WISCONSIN
  
CITY           SKY/WX    TMP DP  RH WIND       PRES   REMARKS
WAUSAU         MOCLDY    51  51 100 E5        30.18F                  
MOSINEE        MOCLDY    52  52 100 E5        30.20S                  
MARSHFIELD     MOCLDY    52  49  89 NE3       30.17F                  
STEVENS POINT  MOCLDY    51  51 100 CALM      30.20S                  
WAUPACA        FAIR      51  50  97 N3        30.20R                  
WAUTOMA        CLOUDY    53  52  96 CALM      30.18F                  
WISC RAPIDS    CLOUDY    55  52  89 E7        30.18F                  
CAMP DOUGLAS   FAIR      47  47 100 CALM      30.16S                  
$$
 
WIZ011>013-019>022-031-037>040-048>050-251200-
NORTHEAST WISCONSIN
  
CITY           SKY/WX    TMP DP  RH WIND       PRES   REMARKS
ANTIGO         CLOUDY    48  48 100 CALM      30.22S                  
SHAWANO        FAIR      56  55  96 CALM      30.20S                  
OCONTO         FAIR      48  48  98 CALM      30.20F                  
STURGEON BAY   FAIR      59  57  93 SE5       30.23R                  
GREEN BAY      FAIR      51  49  92 CALM      30.20S                  
MANITOWOC      FAIR      65  58  78 SE10      30.20S                  
APPLETON       MOCLDY    54  54 100 CALM      30.19R                  
CLINTONVILLE   MOCLDY    50  49  96 CALM      30.21R                  
OSHKOSH        MOCLDY    60  57  89 CALM      30.18S                  
$$
 
WIZ032>034-041-042-053>061-251200-
SOUTHWEST WISCONSIN
  
CITY           SKY/WX    TMP DP  RH WIND       PRES   REMARKS
LA CROSSE      CLOUDY    61  52  72 E8        30.12F                  
SPARTA         FAIR      48  47  97 CALM      30.16S                  
VIROQUA        MOCLDY    54  54 100 E7        30.14F                  
BOSCOBEL       FAIR      55  52  89 CALM      30.14S                  
PRAIRIE DU CHI CLOUDY    58  52  83 CALM      30.12S                  
PLATTEVILLE    FAIR      55  55 100 E8        30.14S                  
$$

WIZ056-057-062-063-064-067-068-251200-
SOUTH CENTRAL WISCONSIN
  
CITY           SKY/WX    TMP DP  RH WIND       PRES   REMARKS
REEDSBURG      FAIR      52  52 100 CALM      30.16S                  
BARABOO/DELLS  FAIR      53  51  94 CALM      30.16S                  
LONE ROCK      NOT AVBL                                               
MINERAL POINT  FAIR      57  57 100 E5        30.14F                  
MADISON        MOCLDY    54  52  93 CALM      30.16S                  
MIDDLETON      CLOUDY    55  51  89 CALM      30.17S                  
WATERTOWN      FAIR      53  53 100 E5        30.16S                  
MONROE         MOCLDY    55  54  94 E5        30.15S                  
JANESVILLE     MOCLDY    55  55 100 CALM      30.15S                  
$$
 
WIZ051-052-058>065-066-070>072-251200-
SOUTHEAST WISCONSIN
  
CITY           SKY/WX    TMP DP  RH WIND       PRES   REMARKS
MILWAUKEE      MOCLDY    65  53  65 S5        30.17S                  
WAUKESHA       CLEAR     54  52  94 CALM      30.18F                  
MILWAUKEE/TIMM FAIR      59  50  72 CALM      30.19S                  
RACINE         FAIR      66  54  65 SE7       30.19R                  
KENOSHA        FAIR      63  55  75 SE5       30.17S                  
FOND DU LAC    CLOUDY    55  52  89 CALM      30.19R                  
SHEBOYGAN      FAIR      57  54  89 CALM      30.19R                  
WEST BEND      MOCLDY    50  50 100 CALM      30.19R                  
JUNEAU         FAIR      53  51  95 CALM      30.19R                  
$$

LSZ147-162-251200-
LAKE SUPERIOR
  
STATION/POSITION TIME  TEMP    WIND        PRES    WAVE
                       AIR SEA DIR/SP/G            HT/PER
                 (UTC) (F)     (DEG/KT/KT) (MB)    (FT/S)
W MID LAKE BUOY  0950   65 64  190/ 16/ 19 1020.1S   3/ 4
DEVILS ISLAND    1000   63     180/ 11/ 15 1020.2F
SAXON HARBOR     1040   62     190/  4/  7 1020.3S
$$
 
LMZ867-665-643>646-251200-
LAKE MICHIGAN
  
STATION/POSITION TIME  TEMP    WIND        PRES    WAVE
                       AIR SEA DIR/SP/G            HT/PER
                 (UTC) (F)     (DEG/KT/KT) (MB)    (FT/S)
S GREEN BAY BUOY 1030   71 69  140/  8/ 10 1022.7F
N MID LAKE BUOY  1040   65 70  170/ 14/ 16 1023.8R
NORTHPORT PIER   1040   64     130/  4/  6 1023.0S
KEWAUNEE LAKESHO 1024   67     160/ 14/ 18 1022.1
SHEBOYGAN LAKESH 1000   68     150/ 17/ 19 1022.1R
PORT WASHINGTON  1030   69     160/ 12/ 16 1023.0R
ATWATER BUOY     1030   69 68  150/ 14/ 17 1022.0R   4/ 5
S MID LAKE BUOY  1040   67 72  120/ 14/ 17 1022.3R
KENOSHA   LAKESH 1000   68     150/ 18/ 20 1021.0
$$

TC  - TEMPERATURE IN CELSIUS
VSB - VISIBILITY IN STATUTE MILES
WCI - WIND CHILL INDEX
HX  - HEAT INDEX